Temperature
24 24 23 24 26 27 29 32 32 32 31 31 31 31 30 29 28 25 25 24 23 22 22 22 21 21 20 20 20 19 19 19 19 19 19 18 18 18 18 18 18 18 18 18 18 18 18 18 18
25 24 25 27 27 27 29 32 32 32 32 31 31 31 30 28 28 27 25 24 22 22 22 22 21 21 20 20 20 19 19 19 19 18 18 18 18 18 18 18 18 18 18 18 18 18 18 18 18
25 25 27 29 28 29 30 32 32 32 32 31 31 31 30 28 27 26 25 23 22 21 21 22 21 21 20 20 20 19 19 19 19 18 18 18 18 18 18 18 18 18 18 18 18 18 18 18 18
24 27 29 29 30 32 32 33 33 33 32 31 31 30 28 27 27 26 24 23 22 20 21 22 21 21 20 20 20 19 19 19 18 18 18 18 18 18 18 18 18 18 18 18 18 18 18 18 18
26 28 29 29 30 33 34 34 33 33 32 32 31 29 27 26 26 25 24 23 22 20 21 21 21 21 20 20 20 19 19 19 18 18 18 18 18 18 18 18 18 18 18 18 18 18 18 18 18
28 30 29 29 31 33 34 33 33 33 32 32 31 29 26 25 25 24 24 23 22 21 21 21 21 20 20 20 19 19 19 19 18 18 18 18 18 18 18 18 18 18 18 18 18 18 18 18 18
28 30 30 31 32 33 34 33 33 33 32 32 31 29 26 25 25 24 24 23 22 21 21 21 21 20 20 20 19 19 19 19 18 18 18 18 18 18 18 18 18 18 18 18 18 18 18 18 18
29 30 30 31 32 33 34 34 33 33 32 31 31 28 26 25 25 24 24 23 22 21 20 21 21 20 20 20 19 19 19 19 19 18 18 18 18 18 18 18 18 18 18 18 18 18 18 18 18
29 30 30 32 33 33 34 34 33 33 32 31 30 29 26 25 25 24 24 23 22 21 20 20 20 20 19 19 19 19 19 18 18 18 18 18 18 18 18 18 18 18 18 18 18 18 18 18 18
30 30 31 33 34 34 34 34 33 33 32 31 29 27 26 25 24 24 24 23 22 21 21 20 19 19 19 18 19 19 18 18 18 18 18 18 18 18 18 18 18 18 18 18 18 18 18 18 18
31 31 32 34 34 34 34 34 33 33 32 31 29 27 26 25 24 24 24 23 22 21 21 20 20 19 19 18 19 18 18 18 18 18 18 18 18 18 18 18 18 18 18 18 18 18 18 18 18
32 32 33 33 33 33 33 33 33 33 32 31 29 28 26 25 25 24 24 23 22 22 21 20 20 19 19 19 18 18 18 18 18 18 18 18 18 18 18 18 18 18 17 17 18 17 17 18 18
32 33 33 33 33 33 33 33 33 32 31 31 30 28 27 25 25 24 23 23 22 21 21 20 20 19 19 19 18 18 18 18 18 18 18 18 18 18 18 18 18 18 18 18 17 17 17 17 17
33 33 33 33 33 33 33 33 32 31 31 30 29 28 27 25 25 24 23 22 21 21 20 20 19 19 19 19 18 18 19 18 18 18 18 18 18 18 18 18 18 17 17 17 17 17 17 17 17
32 32 32 33 33 34 33 32 31 31 31 30 30 28 26 25 24 23 22 22 21 20 20 19 19 19 19 18 18 18 18 18 18 18 18 18 18 18 18 18 18 17 17 17 17 17 17 17 17
32 32 31 32 34 34 33 31 31 31 31 31 29 28 26 24 24 23 22 21 20 20 19 19 18 18 18 18 18 18 18 18 18 18 18 18 18 18 18 17 18 17 17 17 17 17 17 17 17
31 31 31 32 34 34 33 32 32 31 31 31 29 28 26 24 23 22 21 21 20 19 19 18 18 18 18 18 18 18 18 18 18 18 18 18 18 18 18 17 17 17 17 17 17 17 17 17 17
30 31 31 32 33 33 33 32 33 32 32 31 29 28 26 24 23 22 21 20 19 19 19 18 18 18 18 18 18 18 18 18 18 18 18 18 18 17 17 17 17 17 17 17 17 17 17 17 17
31 31 31 32 34 33 32 32 33 32 32 31 29 27 26 24 23 21 20 20 19 19 18 18 18 18 18 18 18 18 18 18 18 18 18 18 17 17 17 17 17 17 17 17 17 17 17 17 17
31 31 31 32 33 33 32 32 32 31 31 30 29 27 26 24 22 21 20 19 19 18 18 18 18 18 18 18 18 18 18 18 17 17 17 17 17 17 17 17 17 17 17 17 16 17 17 17 17
31 31 31 31 32 33 31 30 30 30 30 30 29 27 26 24 23 21 20 19 19 18 18 18 18 18 18 18 18 17 17 17 17 17 17 17 17 17 17 17 17 17 17 17 17 17 17 17 17
30 32 32 31 31 31 31 29 29 29 29 29 29 28 26 25 23 22 20 20 19 19 18 18 18 17 17 17 17 17 17 17 18 18 17 17 17 17 17 17 17 17 17 17 17 16 17 17 17
31 32 32 31 30 30 30 29 29 29 28 29 30 28 27 25 24 22 21 20 19 19 18 18 18 17 17 17 17 17 17 18 18 17 17 17 17 17 17 17 17 17 16 16 16 16 16 17 17
32 31 31 30 30 28 28 28 29 29 29 30 30 28 27 25 24 22 21 20 19 19 18 18 18 17 17 17 17 17 17 17 17 17 17 17 17 17 17 16 17 17 16 16 16 16 16 16 16
31 30 28 28 27 26 27 28 29 30 31 31 30 28 26 25 23 22 21 20 19 19 18 18 18 17 18 17 17 17 17 17 17 17 17 17 17 17 17 17 17 16 16 16 16 16 16 16 16
31 30 28 27 26 26 26 26 28 31 31 30 29 28 26 25 23 22 21 20 19 19 18 18 18 18 17 17 17 17 17 17 17 17 17 18 17 17 17 17 17 16 16 16 16 16 16 16 16
30 30 31 29 28 27 27 28 29 30 31 30 29 27 26 25 23 22 21 20 19 19 18 18 18 17 17 17 17 17 17 17 17 17 17 18 17 17 17 17 17 16 16 16 16 16 15 15 16
31 31 30 29 27 27 28 27 26 27 28 30 29 28 26 25 24 22 21 20 20 19 18 18 18 17 17 17 17 17 18 17 17 17 17 17 17 17 17 17 17 17 16 16 16 16 15 15 16
31 30 30 30 29 28 27 27 27 26 28 29 29 28 27 26 24 23 21 21 20 19 18 18 18 18 17 17 17 17 17 17 17 17 17 17 17 17 17 17 17 16 16 16 16 16 16 16 16
31 31 30 28 28 28 28 27 28 28 29 30 30 28 27 26 24 23 22 21 20 19 19 18 18 17 17 17 17 17 17 17 17 17 17 17 17 17 17 17 17 16 16 16 16 16 16 16 16
Wind_Speed
11 13 11 7 5 5 4 5 10 12 12 10 8 7 12 14 10 8 12 20 25 23 22 21 20 19 18 17 17 17 16 15 15 14 14 13 13 13 13 14 14 15 15 15 15 15 15 15 14
11 14 10 6 5 3 2 6 10 11 8 5 6 8 13 13 12 12 15 22 25 23 21 20 21 19 19 18 17 17 16 15 15 14 14 13 13 13 14 14 14 15 15 15 14 15 14 14 13
12 16 8 6 7 4 2 6 8 8 7 5 5 8 10 10 11 11 18 23 24 21 20 22 21 20 19 18 17 17 16 15 15 14 14 14 13 14 14 14 14 14 14 14 14 14 13 12 11
8 9 6 6 8 3 3 5 5 5 6 5 4 6 10 9 8 14 20 22 23 21 21 22 21 20 19 18 18 17 16 15 15 14 14 13 13 13 14 14 14 14 14 14 13 13 12 11 10
11 7 8 9 9 4 3 4 3 3 4 4 4 8 10 9 13 18 19 22 22 22 21 21 21 20 19 18 17 17 16 15 15 14 14 14 14 14 13 13 13 13 13 13 12 11 11 10 7
8 8 8 8 7 2 2 3 1 2 3 2 3 7 8 11 12 17 19 20 21 22 21 21 21 20 19 18 17 17 16 15 15 14 14 14 13 13 13 13 13 12 12 12 11 10 9 8 6
11 11 13 11 8 2 2 2 1 2 2 1 2 6 8 12 13 17 17 18 20 22 21 18 19 19 18 18 17 17 16 15 15 14 14 14 13 13 13 12 12 12 11 10 9 8 7 6 4
11 11 15 11 6 1 2 1 1 1 1 1 1 5 9 14 16 18 17 17 19 21 20 18 19 18 17 17 17 16 16 15 15 15 14 14 13 13 13 12 11 11 10 9 8 7 6 5 4
13 12 12 11 5 1 2 2 2 0 1 2 4 6 15 20 19 18 16 16 17 19 19 19 18 17 17 17 17 17 16 15 15 14 14 14 12 13 12 13 12 10 9 8 7 6 6 5 5
11 11 12 10 8 6 3 4 5 3 1 3 6 10 18 19 19 19 18 18 18 18 18 17 18 16 16 16 16 15 14 15 14 13 14 12 11 12 13 14 11 10 9 7 7 7 6 7 6
14 15 14 12 8 8 8 8 6 4 2 0 7 15 18 19 18 17 17 17 16 16 15 15 16 13 13 10 12 11 11 13 12 14 13 10 10 11 12 10 9 9 9 7 7 7 6 5 3
15 16 14 12 10 10 10 10 8 5 1 3 6 13 16 18 18 17 16 15 15 14 13 13 15 11 8 9 8 9 8 8 8 11 11 9 5 5 7 6 7 7 6 4 4 3 3 3 2
15 16 15 13 12 12 10 10 8 6 1 3 6 11 13 14 15 14 13 12 12 11 12 12 12 11 8 7 5 7 7 8 9 11 8 9 5 4 5 4 2 2 4 3 1 3 3 2 1
14 14 15 15 14 13 11 10 7 4 4 2 5 9 11 12 12 13 13 12 12 11 11 11 11 11 9 6 3 3 6 6 9 9 8 8 7 5 4 3 1 2 3 4 2 3 2 0 2
15 16 16 16 16 14 10 9 5 3 5 3 4 7 9 10 11 12 13 13 13 12 11 11 11 11 10 8 6 5 6 7 6 8 9 7 8 7 4 3 2 3 5 3 1 2 2 2 2
16 16 16 17 16 12 10 8 4 7 8 3 4 6 9 9 10 11 12 11 12 12 11 11 12 12 10 8 6 4 5 5 6 9 9 8 9 9 4 3 3 3 4 3 2 1 2 1 2
17 17 16 14 12 9 8 7 6 6 5 3 5 7 9 10 10 10 11 12 12 12 12 11 11 12 11 9 6 4 4 4 6 8 8 8 9 9 5 3 3 3 2 1 1 3 2 1 1
14 13 12 10 8 7 8 9 5 4 4 3 5 7 9 10 10 10 11 12 12 11 12 12 11 11 10 8 6 4 5 4 4 5 7 9 8 8 5 5 4 2 2 2 3 3 3 1 1
17 18 14 11 6 6 9 11 8 3 3 3 4 6 9 10 11 11 11 13 12 12 12 12 12 11 10 8 8 6 6 5 4 4 8 9 9 7 3 4 4 1 2 3 3 2 3 2 1
17 17 16 12 9 9 11 13 6 2 3 3 5 8 9 11 12 12 12 12 13 13 12 12 13 13 11 9 7 6 6 5 5 4 6 8 8 8 6 4 4 3 3 2 2 1 1 3 3
16 15 15 14 13 12 12 12 6 3 4 4 6 9 10 11 14 14 13 13 13 13 13 13 13 12 11 10 7 6 5 5 5 6 5 5 7 7 4 5 3 3 4 4 2 2 2 1 2
15 15 15 15 14 12 11 11 6 6 6 8 8 9 10 10 12 14 14 13 13 13 13 12 13 12 11 11 10 10 8 7 7 6 5 5 6 6 6 5 4 2 1 5 4 4 2 2 2
15 14 14 14 13 15 14 13 6 6 5 8 9 9 9 10 11 12 13 13 12 12 13 12 12 12 12 12 11 11 9 8 7 7 7 7 5 5 6 6 4 3 2 4 2 3 1 2 3
14 14 13 11 12 15 14 14 8 5 5 7 10 11 9 10 11 12 11 11 11 12 12 13 13 11 12 12 12 11 11 10 9 9 8 7 6 5 6 6 5 4 3 4 3 2 2 2 2
15 12 10 10 9 11 11 11 6 5 5 6 10 12 11 11 10 11 11 11 11 12 13 13 13 12 12 12 12 11 11 10 10 10 9 8 7 6 6 6 5 4 3 4 3 3 2 2 1
15 15 13 11 9 7 5 7 4 4 6 8 10 11 11 11 11 11 11 10 11 11 11 12 12 12 12 12 10 9 9 8 7 8 8 7 6 6 8 7 6 5 6 6 4 3 4 3 2
17 16 17 15 15 12 7 5 2 3 5 9 10 10 11 12 12 11 11 11 11 12 11 12 12 11 11 12 10 9 9 8 7 8 7 6 5 7 10 8 8 6 6 5 5 4 4 4 4
17 15 10 11 11 12 9 3 2 3 3 7 10 11 11 12 12 12 11 11 11 11 11 11 12 11 11 11 10 10 9 8 7 7 6 5 5 5 9 8 8 8 7 6 5 5 4 4 4
15 16 13 10 9 10 10 3 0 5 5 6 10 12 12 12 13 13 12 10 11 12 12 11 11 11 10 10 9 8 9 8 8 6 6 5 5 6 7 8 8 8 8 7 6 6 6 6 6
15 15 14 10 10 10 10 5 5 6 7 7 8 11 12 12 13 13 13 12 11 12 12 12 11 11 11 9 8 8 8 8 8 7 6 6 6 6 7 8 8 8 8 7 7 8 7 7 7
Wind_Direction
237 246 243 254 256 256 300 56 60 58 61 55 51 48 57 57 68 102 134 131 125 127 133 135 134 134 133 132 131 129 127 125 123 121 117 113 110 107 104 101 99 98 96 95 95 94 93 93 94
258 259 251 247 254 284 4 63 67 65 63 68 75 65 70 62 76 108 125 125 126 130 137 137 137 136 135 134 134 133 131 129 127 124 121 116 112 110 106 102 100 100 99 98 96 96 95 95 96
263 266 267 252 252 264 62 64 73 80 79 54 59 66 73 79 86 112 126 131 128 133 134 134 139 138 138 137 136 134 134 132 129 126 122 118 114 111 108 104 102 102 100 99 98 98 97 98 99
263 255 246 268 281 313 55 63 70 85 95 81 66 76 74 55 94 121 133 134 130 132 132 138 140 139 139 139 138 136 135 134 131 128 125 121 117 114 112 108 106 104 102 101 100 100 99 99 101
251 265 259 272 277 293 66 59 62 79 76 76 90 101 95 86 105 125 138 136 135 136 134 140 141 141 141 141 140 139 137 136 132 129 126 122 119 116 114 111 109 107 104 102 102 103 102 102 104
258 258 265 274 280 294 77 90 88 68 74 74 93 104 103 112 120 137 144 142 140 136 136 141 143 143 143 143 143 141 140 138 135 131 129 124 122 119 117 115 113 110 108 105 105 106 105 103 105
260 274 275 276 278 280 75 70 54 60 46 36 97 108 120 133 141 146 146 145 141 138 137 145 146 146 146 146 146 145 143 141 139 135 132 129 127 125 122 120 118 115 113 111 111 111 113 114 119
262 282 288 284 272 298 93 8 51 9 96 68 65 114 145 148 152 148 149 147 143 141 144 151 151 150 152 151 150 148 146 145 143 140 139 137 136 135 134 130 124 122 120 120 121 125 130 139 156
257 265 281 292 298 14 80 329 323 216 166 100 37 95 143 147 152 151 154 152 148 147 150 156 153 156 158 155 152 151 151 151 148 149 151 151 155 150 149 127 131 132 132 135 142 151 161 173 193
242 258 273 297 325 341 353 315 299 269 215 133 106 113 139 150 156 161 165 162 157 153 157 159 155 160 162 156 151 158 160 159 167 160 166 178 165 150 135 136 142 146 151 160 176 183 194 207 204
245 258 277 298 313 317 312 300 290 293 319 110 155 157 155 159 164 170 172 167 160 159 160 158 152 159 159 144 157 163 161 165 178 162 173 178 150 139 136 149 155 168 174 184 180 201 212 199 193
248 267 279 289 300 298 294 301 306 307 327 114 148 158 160 168 173 177 174 170 161 159 154 152 146 152 146 148 162 161 157 169 166 163 178 155 151 139 141 148 168 175 169 172 186 189 141 122 125
249 262 271 276 278 277 285 292 294 304 338 115 143 155 162 172 176 175 168 164 155 154 149 145 146 143 142 144 168 166 152 165 157 159 175 152 146 133 122 118 127 147 134 156 197 80 71 59 109
270 272 272 274 273 270 271 276 276 293 291 152 150 156 163 167 172 165 160 157 157 159 153 148 148 142 143 148 170 151 141 152 146 151 160 157 137 125 124 131 136 114 95 67 44 94 94 19 77
270 275 274 269 261 256 261 271 274 244 251 202 154 154 157 161 166 163 164 161 160 160 157 151 154 148 150 158 178 156 146 152 146 147 148 152 138 131 136 140 169 119 116 125 125 116 139 198 147
269 262 264 263 250 243 251 268 237 215 236 191 152 156 151 153 163 163 159 155 156 156 154 161 164 157 158 162 173 158 154 150 149 147 148 151 138 145 156 148 132 142 154 155 136 192 176 121 116
257 253 256 256 239 240 253 271 233 210 239 194 161 160 152 152 157 157 158 159 160 159 159 164 163 161 161 161 170 167 143 149 145 145 148 153 152 153 159 128 121 177 153 154 166 113 61 81 108
264 271 273 268 230 237 265 279 256 228 240 203 162 155 151 157 161 158 159 159 160 162 161 163 164 162 160 160 167 164 149 152 146 142 147 156 159 161 161 133 146 200 140 99 62 82 71 35 213
268 285 287 278 274 269 279 283 271 239 234 200 149 143 156 161 160 155 157 158 162 163 165 166 168 165 163 166 171 169 167 168 159 157 156 162 160 160 169 128 150 200 113 122 148 137 157 213 193
267 278 284 286 286 281 282 285 279 247 252 206 157 162 169 159 155 155 157 161 165 166 167 167 168 167 172 172 168 170 166 172 170 164 152 160 155 159 170 135 168 141 120 125 124 103 258 216 177
260 265 274 281 284 274 274 278 267 232 237 200 176 166 158 165 162 162 166 168 168 169 171 173 171 173 176 169 163 165 159 166 163 154 155 161 164 173 163 152 164 156 170 156 180 194 233 268 185
258 262 271 276 278 279 276 280 251 202 203 205 185 162 159 163 160 164 167 170 172 173 173 169 172 175 173 169 172 170 174 175 171 162 160 163 170 172 165 161 147 181 160 144 196 186 232 252 254
260 266 269 275 278 279 276 276 268 174 201 202 171 154 158 158 156 159 167 170 173 173 171 170 172 175 174 178 177 176 181 175 164 157 158 167 168 174 178 166 158 175 169 150 136 128 244 260 273
252 259 263 265 270 269 273 275 263 196 195 179 156 149 150 150 151 155 161 162 171 171 171 170 170 174 175 180 179 183 180 170 165 163 166 172 168 180 181 169 160 179 171 142 142 150 205 301 342
237 243 251 250 247 258 282 275 262 170 162 154 148 144 147 145 150 155 161 166 169 172 173 171 169 171 173 178 180 184 179 174 168 167 173 179 174 179 180 173 168 181 157 156 167 179 219 212 274
231 235 245 260 261 267 267 253 263 151 127 128 134 141 147 148 150 156 161 165 169 172 169 166 166 169 172 175 178 180 174 174 174 177 178 187 184 176 169 166 171 180 175 180 170 192 204 195 213
241 238 248 260 270 271 253 229 229 167 152 144 143 147 155 152 151 156 160 167 170 170 169 167 163 164 170 173 172 174 176 181 178 178 184 182 178 172 166 171 175 182 181 180 165 217 204 166 200
240 248 253 256 268 277 273 253 252 250 220 171 155 159 160 154 155 155 158 165 166 164 161 160 161 166 169 168 170 175 177 176 168 171 180 174 179 168 164 177 179 182 182 185 186 211 196 189 212
223 236 247 262 263 270 280 281 185 230 217 201 167 160 156 156 156 153 156 158 156 157 157 160 159 161 165 169 171 167 169 171 167 173 174 168 174 167 175 183 183 187 188 189 197 222 196 197 213
232 231 235 245 260 272 282 273 210 220 227 193 154 146 150 151 152 152 153 153 154 158 159 161 160 164 167 168 165 165 166 169 172 177 173 169 177 183 186 191 192 196 195 192 196 218 215 202 209
Height
1491 1490 1490 1492 1490 1487 1480 1466 1461 1463 1467 1469 1470 1470 1472 1477 1484 1496 1495 1496 1498 1501 1506 1509 1513 1515 1518 1521 1523 1526 1528 1530 1532 1533 1535 1536 1537 1539 1540 1541 1543 1544 1545 1546 1546 1547 1548 1549 1550
1491 1491 1493 1490 1488 1491 1481 1463 1464 1466 1469 1470 1471 1472 1476 1480 1484 1490 1494 1498 1499 1501 1506 1510 1513 1516 1519 1522 1524 1527 1529 1531 1533 1535 1536 1538 1539 1541 1542 1543 1544 1545 1546 1547 1548 1549 1550 1551 1552
1490 1491 1492 1484 1484 1483 1476 1463 1463 1465 1469 1471 1471 1474 1478 1483 1487 1491 1495 1499 1500 1503 1507 1510 1514 1517 1520 1523 1525 1528 1530 1532 1534 1536 1538 1539 1541 1542 1544 1545 1546 1547 1548 1549 1550 1551 1552 1553 1554
1492 1491 1487 1482 1479 1466 1462 1461 1462 1465 1468 1471 1472 1476 1482 1486 1489 1492 1496 1499 1502 1505 1508 1511 1515 1518 1521 1524 1526 1529 1531 1533 1536 1538 1539 1541 1542 1544 1545 1547 1548 1549 1550 1551 1552 1553 1554 1555 1556
1493 1489 1485 1484 1474 1461 1457 1460 1463 1465 1467 1470 1472 1478 1484 1488 1489 1493 1497 1500 1502 1506 1508 1512 1516 1519 1522 1524 1527 1530 1532 1534 1537 1539 1541 1542 1544 1546 1547 1548 1549 1551 1552 1553 1554 1555 1556 1557 1558
1492 1484 1487 1485 1471 1459 1457 1460 1462 1465 1467 1469 1472 1477 1485 1489 1491 1494 1497 1501 1504 1506 1508 1512 1516 1519 1522 1525 1528 1531 1533 1536 1538 1540 1542 1544 1545 1547 1548 1550 1551 1552 1553 1554 1555 1556 1557 1559 1560
1490 1483 1481 1474 1468 1461 1458 1460 1462 1464 1467 1469 1471 1478 1487 1490 1491 1494 1498 1501 1504 1507 1509 1512 1516 1520 1523 1526 1529 1532 1534 1536 1539 1541 1543 1545 1547 1548 1550 1551 1552 1553 1555 1556 1557 1558 1559 1560 1561
1487 1482 1477 1469 1466 1462 1458 1460 1462 1464 1466 1470 1472 1477 1485 1488 1490 1494 1498 1502 1505 1507 1509 1512 1516 1519 1523 1526 1529 1532 1535 1537 1540 1542 1544 1546 1548 1550 1551 1552 1554 1555 1556 1557 1558 1559 1561 1562 1563
1485 1484 1480 1469 1462 1459 1457 1459 1461 1463 1465 1469 1472 1476 1481 1485 1489 1494 1498 1501 1504 1507 1509 1512 1516 1519 1522 1526 1529 1532 1535 1538 1541 1543 1545 1547 1549 1551 1552 1554 1555 1556 1557 1558 1560 1561 1562 1563 1564
1480 1480 1473 1461 1456 1456 1457 1459 1460 1461 1463 1467 1473 1478 1481 1484 1488 1492 1495 1499 1502 1505 1508 1512 1515 1518 1523 1526 1529 1532 1536 1538 1541 1543 1546 1548 1550 1552 1554 1555 1556 1557 1558 1560 1561 1562 1563 1564 1565
1475 1472 1465 1460 1458 1458 1458 1458 1458 1460 1463 1467 1471 1476 1480 1483 1487 1490 1494 1497 1501 1504 1508 1512 1515 1518 1523 1526 1528 1532 1536 1539 1542 1544 1546 1549 1552 1553 1555 1556 1557 1558 1559 1561 1562 1563 1563 1564 1565
1471 1467 1463 1461 1460 1460 1459 1458 1458 1459 1463 1466 1469 1473 1477 1480 1484 1488 1492 1496 1499 1503 1507 1511 1512 1517 1522 1526 1529 1532 1536 1539 1542 1544 1547 1550 1552 1554 1555 1556 1557 1559 1560 1561 1563 1563 1564 1565 1566
1466 1464 1462 1460 1460 1459 1458 1458 1458 1460 1462 1464 1468 1471 1475 1478 1482 1486 1490 1495 1498 1502 1505 1509 1512 1516 1520 1525 1529 1533 1536 1539 1542 1545 1547 1550 1552 1554 1555 1556 1558 1559 1561 1562 1563 1564 1565 1566 1567
1463 1461 1460 1459 1457 1456 1456 1456 1458 1461 1463 1464 1467 1470 1473 1476 1480 1483 1487 1492 1496 1500 1504 1508 1511 1515 1519 1524 1528 1532 1535 1539 1541 1544 1547 1549 1551 1553 1554 1556 1557 1559 1560 1561 1563 1564 1565 1566 1567
1463 1461 1459 1456 1454 1453 1454 1457 1457 1460 1461 1463 1466 1469 1473 1476 1479 1481 1485 1489 1494 1498 1502 1506 1510 1514 1518 1523 1527 1531 1534 1538 1540 1543 1546 1549 1550 1552 1554 1556 1557 1558 1560 1561 1562 1563 1564 1566 1567
1461 1462 1464 1454 1449 1448 1454 1463 1455 1457 1458 1460 1464 1468 1472 1476 1478 1481 1484 1488 1492 1496 1501 1505 1509 1512 1516 1521 1526 1530 1534 1537 1539 1542 1545 1547 1550 1551 1553 1555 1556 1558 1559 1561 1562 1563 1564 1566 1567
1463 1465 1462 1452 1444 1444 1449 1455 1451 1454 1455 1458 1462 1466 1471 1475 1478 1481 1484 1487 1491 1495 1499 1503 1507 1511 1515 1520 1525 1530 1533 1535 1538 1541 1543 1546 1549 1551 1553 1554 1555 1557 1559 1560 1562 1563 1564 1565 1567
1466 1459 1457 1452 1442 1443 1448 1449 1448 1449 1452 1455 1459 1464 1469 1473 1477 1480 1483 1486 1490 1494 1497 1501 1505 1509 1514 1518 1523 1528 1531 1534 1537 1540 1542 1545 1548 1550 1552 1553 1555 1557 1558 1559 1560 1562 1563 1564 1566
1456 1456 1455 1448 1439 1443 1447 1447 1445 1447 1450 1453 1457 1463 1468 1472 1476 1479 1482 1485 1488 1492 1496 1499 1503 1507 1512 1517 1521 1525 1529 1533 1536 1539 1542 1544 1547 1549 1551 1553 1554 1556 1557 1558 1559 1562 1563 1564 1566
1454 1457 1454 1446 1440 1443 1447 1447 1443 1445 1449 1452 1456 1461 1465 1470 1475 1478 1481 1483 1487 1490 1494 1497 1501 1505 1510 1515 1519 1524 1528 1532 1535 1538 1541 1543 1546 1548 1551 1552 1554 1555 1556 1557 1559 1560 1562 1564 1565
1454 1456 1454 1451 1445 1441 1447 1452 1448 1446 1449 1452 1455 1458 1462 1467 1472 1476 1479 1483 1486 1489 1492 1496 1499 1503 1508 1513 1518 1522 1527 1531 1534 1537 1539 1542 1545 1547 1550 1551 1553 1554 1556 1556 1558 1559 1561 1563 1565
1456 1448 1447 1448 1453 1454 1450 1466 1452 1446 1449 1451 1452 1456 1460 1465 1469 1473 1477 1481 1484 1487 1490 1494 1498 1502 1506 1511 1515 1519 1523 1527 1531 1535 1538 1541 1544 1546 1548 1550 1551 1553 1555 1556 1557 1558 1560 1562 1564
1448 1443 1445 1447 1452 1457 1452 1460 1453 1445 1451 1448 1448 1453 1458 1463 1468 1472 1475 1478 1482 1486 1489 1492 1495 1500 1504 1508 1512 1517 1522 1526 1530 1533 1537 1540 1542 1545 1547 1549 1550 1552 1553 1555 1556 1557 1559 1561 1563
1442 1445 1446 1449 1456 1471 1461 1462 1458 1444 1445 1443 1446 1451 1457 1462 1466 1470 1474 1478 1481 1485 1487 1490 1493 1497 1501 1505 1510 1515 1520 1524 1528 1531 1535 1538 1541 1543 1545 1547 1548 1550 1552 1553 1555 1556 1558 1559 1561
1442 1454 1469 1474 1477 1476 1460 1462 1452 1436 1434 1437 1443 1449 1455 1460 1465 1469 1473 1476 1479 1482 1485 1488 1491 1495 1499 1503 1508 1513 1517 1522 1525 1529 1533 1536 1539 1541 1543 1545 1546 1548 1550 1552 1553 1555 1557 1558 1559
1441 1448 1469 1480 1481 1474 1466 1466 1447 1432 1433 1437 1443 1448 1454 1459 1464 1468 1471 1475 1478 1481 1484 1486 1489 1493 1497 1501 1506 1511 1515 1519 1523 1527 1531 1534 1537 1539 1541 1543 1545 1546 1548 1550 1552 1554 1555 1556 1558
1441 1442 1439 1452 1458 1467 1461 1452 1442 1433 1434 1437 1442 1448 1452 1457 1462 1467 1470 1474 1477 1479 1482 1485 1488 1492 1496 1500 1504 1508 1513 1517 1521 1525 1529 1532 1535 1537 1539 1541 1543 1545 1547 1549 1550 1552 1553 1555 1556
1431 1433 1441 1451 1467 1472 1459 1456 1457 1447 1439 1437 1441 1446 1451 1456 1461 1465 1469 1473 1476 1479 1482 1485 1487 1490 1495 1499 1502 1506 1511 1515 1519 1523 1527 1530 1533 1535 1537 1539 1541 1543 1545 1546 1548 1550 1551 1553 1554
1432 1436 1439 1442 1446 1463 1469 1463 1442 1443 1439 1438 1438 1443 1448 1453 1459 1463 1468 1472 1475 1478 1481 1484 1487 1490 1494 1498 1501 1505 1509 1513 1517 1521 1524 1527 1530 1532 1534 1537 1539 1541 1543 1544 1546 1548 1550 1551 1552
1423 1429 1435 1451 1454 1449 1456 1458 1434 1435 1436 1435 1437 1442 1446 1452 1457 1462 1467 1471 1474 1478 1481 1484 1487 1490 1493 1497 1500 1504 1508 1512 1515 1518 1522 1524 1527 1530 1532 1534 1536 1538 1541 1542 1544 1546 1547 1549 1550